Capitol Logistics 626


SKBO
El Nuevo Dorado International Airport
Bogota, CO
KMIA
Miami International Airport
Miami, US

Activity Log

Date Flight Route Aircraft Duration
04/05/2020 CPX626 UCA UA301 URSUS FLIPR5 B763 3h 37m
01/05/2020 CPX626 UCA UA301 URSUS FLIPR5 B763 3h 33m

Route Details

Aircraft Information
Primary: Boeing 767-300BDSF
Backup: Not Available
Route Data
Distance: 1372nm
Sched. Duration: 3h 04m
Avg. Duration: 3h 35m (+31m)
Times Flown: 2
Recm'd Route: UCA UA301 URSUS FLIPR5
Planned Altitude: 34,000ft
Origin Wx: SKBO 190800Z VRB02KT 9999 FEW010 07/06 Q1025 NOSIG RMK A3027
Dest. Wx: KMIA 190753Z 36003KT 10SM CLR 16/11 A3020 RMK AO2 SLP227 T01560106 $
Notes:

Financial History
Total Freight: 150,394lbs
Average Load: 75,197lbs/flt
Fuel Used: 68,331lbs
Avg. Fuel Used: 34,166lbs/flt
Fuel Expense: $54,665
Avg. Fuel Expense: $27,332
Avg. Fuel Cost: $0.80/lbs
Total Gross Income: $315,827
Pilot Pay: $248
Total Expenses: $34,213
Total Revenue: $225,914
Average Revenue: $157,913.70